This demonstration page uses our WeatherBlox Daily Observations layout. Learn more.

Left ArrowRight Arrow

Hourly Observations for October 17, 2021

Temp ( °F °C ) Dew Point ( °F °C ) Humidity (%) Winds ( mph kmh ) Pressure ( in mb ) Visibility ( mi km ) Precip ( " mm )
12:56 am 00:56 Clear 42 5.6 34 1.1 73 73 N N/A 30.24 1024 10 16 N/A
1:56 am 01:56 Clear 42 5.6 33 0.6 71 71 WSW 3 6 30.23 1024 10 16 N/A
2:56 am 02:56 Clear 41 5 34 1.1 76 76 N N/A 30.23 1024 10 16 N/A
3:56 am 03:56 Clear 41 5 34 1.1 76 76 SW 3 6 30.22 1023 10 16 N/A
4:56 am 04:56 Clear 41 5 34 1.1 76 76 SW 7 11 30.22 1023 10 16 N/A
5:56 am 05:56 Clear 43 6.1 34 1.1 71 71 WSW 5 7 30.21 1023 10 16 N/A
6:56 am 06:56 Clear 43 6.1 34 1.1 71 71 SW 6 9 30.21 1023 10 16 N/A
7:56 am 07:56 Sunny 41 5 34 1.1 76 76 SW 7 11 30.22 1023 10 16 N/A
8:56 am 08:56 Sunny 45 7.2 36 2.2 71 71 SSW 6 9 30.22 1023 10 16 N/A
9:56 am 09:56 Sunny 54 12.2 36 2.2 51 51 SW 9 15 30.21 1023 10 16 N/A
10:56 am 10:56 Sunny 60 15.6 39 3.9 46 46 SW 7 11 30.20 1023 10 16 N/A
11:56 am 11:56 Sunny 69 20.6 37 2.8 31 31 SSW 13 20 30.18 1022 10 16 N/A
12:56 pm 12:56 Sunny 72 22.2 36 2.2 27 27 SSW 13 20 30.16 1021 10 16 N/A
1:56 pm 13:56 Sunny 74 23.3 35 1.7 24 24 SSW 17 28 30.12 1020 10 16 N/A
2:56 pm 14:56 Sunny 75 23.9 35 1.7 23 23 S 15 24 30.09 1019 10 16 N/A
3:56 pm 15:56 Sunny 75 23.9 35 1.7 23 23 S 17 28 30.07 1018 10 16 N/A
4:56 pm 16:56 Sunny 74 23.3 36 2.2 25 25 S 16 26 30.04 1017 10 16 N/A
5:56 pm 17:56 Sunny 71 21.7 39 3.9 31 31 S 10 17 30.04 1017 10 16 N/A
6:56 pm 18:56 Clear 63 17.2 38 3.3 40 40 SSE 7 11 30.04 1017 10 16 N/A
7:56 pm 19:56 Clear 57 13.9 38 3.3 49 49 SSE 9 15 30.05 1018 10 16 N/A
8:56 pm 20:56 Clear 53 11.7 38 3.3 57 57 SSE 10 17 30.05 1018 10 16 N/A
9:56 pm 21:56 Clear 53 11.7 39 3.9 59 59 SSE 8 13 30.04 1017 10 16 N/A
10:56 pm 22:56 Clear 54 12.2 39 3.9 57 57 SSE 10 17 30.02 1017 10 16 N/A
11:56 pm 23:56 Clear 50 10 39 3.9 66 66 S 7 11 30.00 1016 10 16 N/A

Powered by AerisWeather